GFSFLT2_500_spd_021.txt.gz
Wind_Speed
31 27 30 33 36 31 44 45 48 47 43 24 26 22 27 31 32 33 22 18 10 13 12 16 15 12 9 8 16 20 20 22
33 32 35 36 31 35 38 47 52 44 48 37 23 26 33 34 33 34 41 34 14 19 19 20 17 14 11 7 9 9 11 15
40 43 39 38 40 43 39 42 45 46 47 36 29 22 36 37 32 35 33 32 29 23 26 23 24 22 13 10 10 10 9 9
47 44 39 37 40 42 49 42 47 48 40 33 31 23 36 26 27 29 34 32 32 28 30 24 31 23 12 12 8 10 10 7
50 49 48 47 40 42 43 44 48 46 38 35 39 31 33 43 34 30 31 35 32 37 38 26 27 24 17 15 11 10 8 6
58 55 49 50 45 42 43 48 44 49 42 30 46 43 36 31 36 35 21 35 37 38 34 29 24 26 22 18 16 15 9 7
58 48 51 52 43 43 46 45 48 39 46 41 48 49 40 37 52 28 33 35 39 39 40 34 25 24 23 22 21 20 16 11
56 55 48 55 50 46 43 39 42 41 42 46 43 38 31 44 41 36 33 37 37 40 46 37 36 36 35 25 24 25 22 16
66 59 50 49 61 52 41 38 36 42 39 37 53 49 34 25 32 42 37 40 44 39 39 40 41 41 36 33 27 28 28 25
68 62 59 62 54 49 44 40 40 37 34 35 42 54 49 44 44 49 41 42 39 43 42 45 46 48 46 40 31 29 29 29
58 70 65 61 54 50 46 44 37 36 32 31 41 54 62 53 51 56 51 44 46 48 37 43 40 43 41 43 36 32 30 33
53 66 73 67 54 48 48 47 44 46 42 41 42 42 52 65 63 56 50 54 57 51 41 46 43 42 46 46 41 39 33 34
47 59 65 66 58 41 45 52 51 55 52 50 48 46 45 47 69 71 64 57 60 56 60 56 45 44 46 42 42 37 36 36
36 45 56 55 55 51 49 54 53 49 50 53 51 51 52 47 41 49 76 74 69 61 53 51 55 55 41 39 37 39 37 38
44 42 47 47 48 57 62 58 59 59 54 50 51 49 47 47 44 44 48 62 73 80 68 57 59 69 62 56 47 41 40 40
50 60 58 56 58 57 60 56 58 50 45 41 39 39 46 46 50 50 53 52 55 60 69 71 69 57 60 63 57 46 45 43
51 53 47 43 59 55 52 50 50 51 40 40 43 44 47 50 50 43 44 55 58 56 54 52 50 59 64 67 63 53 45 44
47 52 23 55 44 50 61 47 61 54 49 39 38 42 46 44 46 41 49 44 47 58 54 50 47 49 46 49 56 49 47 47
60 59 56 47 57 54 57 50 48 45 45 46 44 39 38 41 41 35 45 46 56 37 48 55 54 51 50 47 51 49 49 50

GFSFLT2_500_spd_024.txt.gz
Wind_Speed
33 28 31 31 41 36 45 47 51 45 49 39 25 24 16 16 25 21 16 8 12 13 12 6 7 12 13 14 15 18 19 20
35 36 39 38 32 38 42 46 52 47 50 43 35 27 24 18 21 23 22 18 16 20 21 8 8 11 15 15 13 12 13 16
41 49 41 40 41 42 41 41 41 38 38 39 35 31 26 28 25 24 23 23 18 22 18 17 10 12 16 18 17 14 12 11
50 45 45 47 43 43 45 42 40 36 34 22 36 39 32 27 26 22 25 24 25 24 21 19 10 13 17 17 18 15 11 9
55 55 55 57 49 47 44 43 45 45 36 23 29 43 44 36 30 25 27 28 32 27 24 21 15 18 20 18 16 15 13 8
63 57 55 56 54 54 51 52 47 47 40 26 28 45 46 41 40 35 36 35 44 29 33 24 20 22 22 19 19 18 15 10
71 65 55 56 56 55 56 53 55 42 44 33 27 46 47 39 34 31 28 48 44 45 29 30 25 28 23 26 23 21 20 16
78 73 66 57 60 59 56 53 53 50 45 36 34 41 52 44 42 29 36 36 51 33 27 31 28 30 23 22 24 23 21 21
77 73 66 52 67 65 61 57 54 55 43 36 38 35 53 59 48 37 31 37 32 34 32 32 34 35 31 28 26 28 29 24
76 72 65 71 61 65 61 56 54 54 36 37 39 37 40 52 52 45 36 44 43 38 36 38 41 38 39 41 38 31 28 28
73 67 65 67 65 57 67 60 48 53 53 44 37 34 36 50 58 52 47 43 40 41 42 38 45 39 42 44 38 32 30 31
54 67 62 68 62 59 53 64 56 53 53 50 40 36 41 41 55 62 58 55 46 49 42 41 41 48 46 44 43 42 34 29
56 58 68 67 66 57 52 55 59 57 53 49 44 39 38 37 46 56 62 62 59 56 54 49 48 57 43 41 43 42 37 36
64 49 55 68 65 55 56 52 56 55 56 50 45 42 41 37 37 52 60 63 62 57 51 49 51 55 53 53 49 40 43 43
56 45 55 62 42 41 53 55 54 59 58 53 51 47 47 46 42 39 47 58 66 67 64 58 55 58 59 63 55 51 52 46
52 38 56 69 70 40 57 60 56 59 62 60 56 55 54 52 44 43 45 47 51 53 54 60 66 71 68 63 60 53 52 49
53 38 59 65 58 67 60 63 65 65 59 59 54 55 54 52 52 49 47 50 47 49 51 56 62 63 65 64 66 68 61 54
53 47 54 62 65 59 56 59 67 69 65 60 54 52 50 56 49 47 45 42 43 48 52 54 52 64 61 59 57 64 65 64
55 45 49 46 48 50 55 59 57 55 55 57 53 54 52 51 48 48 45 45 49 51 50 47 57 59 54 53 51 53 57 61

GFSFLT2_500_spd_030.txt.gz
Wind_Speed
37 33 32 33 35 31 41 41 41 37 23 26 21 25 30 29 22 26 24 19 11 12 10 5 4 5 3 4 8 10 13 18
36 41 42 40 31 38 43 44 39 34 26 19 18 20 27 27 25 26 23 24 22 14 13 9 8 12 8 5 6 8 7 9
46 49 42 40 42 42 43 43 39 36 24 20 15 18 28 30 24 26 31 29 24 19 14 13 15 14 11 11 11 8 8 8
54 49 45 45 45 46 47 38 35 34 23 18 11 16 25 30 30 30 27 25 27 25 22 20 19 19 13 14 13 11 12 10
57 55 56 57 52 50 47 45 46 42 25 23 13 14 24 34 37 34 34 29 29 29 28 30 23 22 21 19 15 13 14 12
64 58 60 59 57 56 53 54 46 46 31 23 24 19 21 28 39 42 39 34 34 32 32 31 30 26 23 21 21 18 17 14
69 65 63 61 61 60 59 55 53 42 39 30 25 25 26 28 30 38 40 41 39 38 35 36 34 33 29 27 26 23 19 19
73 71 67 65 62 62 61 59 58 48 47 39 31 28 31 32 34 32 31 37 40 38 37 37 34 33 28 27 31 27 22 18
79 76 74 72 64 64 65 63 58 53 46 41 35 33 35 38 38 36 33 31 34 41 42 41 36 38 33 30 32 39 27 24
85 80 80 76 68 67 68 64 61 57 49 47 44 38 38 39 41 43 39 36 36 37 41 43 39 39 37 34 26 15 29 31
92 88 84 81 79 72 69 67 64 64 57 51 49 46 42 42 43 43 45 41 40 37 41 42 38 37 36 36 24 19 25 31
95 94 91 87 81 77 74 71 67 66 61 55 55 54 47 42 42 44 41 45 45 40 37 44 44 43 43 38 32 30 26 36
95 98 97 92 87 83 80 72 67 65 62 59 57 54 50 45 41 40 39 43 45 42 38 43 49 49 44 42 44 29 33 39
99 99 104 94 90 87 84 77 71 69 62 59 58 51 45 48 43 38 40 40 41 41 44 45 45 45 44 43 35 34 36 40
96 109 97 93 88 84 84 82 77 71 65 58 55 52 42 42 43 36 35 39 39 41 43 47 47 48 46 43 40 43 43 39
80 97 101 99 85 80 79 72 74 66 68 63 57 51 51 44 43 37 38 36 38 41 43 44 54 50 51 52 51 50 53 48
58 75 89 94 91 71 65 57 45 37 44 57 57 54 51 45 47 45 43 43 37 39 40 40 38 42 52 57 57 54 54 53
41 46 63 70 67 79 46 41 42 40 40 40 43 47 45 48 48 52 51 48 42 41 45 46 46 46 44 46 47 47 47 49
45 46 41 53 53 47 73 49 46 45 47 43 43 49 46 46 46 44 44 48 50 46 45 48 50 49 48 49 54 52 55 53

GFSFLT2_500_spd_033.txt.gz
Wind_Speed
36 31 32 31 35 27 39 36 35 25 18 14 20 26 29 30 29 28 26 27 23 23 21 17 16 15 12 13 13 13 16 21
41 40 41 37 32 37 39 39 34 26 18 12 16 20 27 36 31 28 26 23 22 20 18 17 19 16 17 13 11 13 13 14
49 49 45 42 42 40 37 38 34 27 17 11 12 20 25 31 32 31 26 23 23 22 23 21 20 19 16 15 12 9 13 13
52 50 46 45 44 44 44 37 32 31 27 17 13 19 29 35 37 31 30 27 31 28 26 25 25 24 17 16 12 11 14 13
54 55 53 52 51 48 45 43 44 38 28 18 13 21 26 36 42 40 28 27 33 36 31 27 24 21 21 21 14 15 17 17
60 58 57 56 54 50 49 52 42 38 30 20 23 21 22 31 37 40 38 38 41 40 36 32 29 27 26 25 22 21 21 19
65 65 64 62 59 58 56 50 49 37 34 30 27 26 24 26 36 38 41 41 42 37 37 36 35 32 29 30 28 26 20 22
71 70 68 66 64 62 58 54 53 44 39 33 29 31 29 31 37 41 43 44 45 46 42 41 40 37 32 31 32 26 26 23
75 73 72 71 64 63 60 57 55 50 43 38 33 32 31 32 34 33 36 40 45 46 46 44 42 41 37 34 30 30 26 27
79 77 77 71 69 69 66 62 59 53 47 43 38 36 35 37 38 38 36 34 34 33 36 40 38 37 35 33 32 31 30 29
83 81 79 78 73 71 69 65 63 59 54 49 45 42 37 42 42 43 42 38 36 35 34 33 35 37 33 36 37 34 29 31
88 86 86 78 75 74 72 68 64 62 56 52 49 46 40 39 43 43 43 44 40 38 37 33 31 33 34 36 40 34 29 24
91 91 90 85 80 77 75 69 67 65 61 58 54 50 44 40 42 44 45 45 44 40 36 33 33 34 33 35 35 34 38 35
97 97 95 88 83 82 77 71 67 65 60 61 59 52 48 48 44 44 45 44 45 43 39 35 35 35 37 37 41 42 42 43
96 101 94 94 91 83 82 78 74 70 62 59 57 53 48 46 50 45 40 45 46 44 39 36 34 36 36 36 39 41 43 43
83 96 97 97 93 92 89 83 77 75 71 66 58 52 51 49 46 44 47 41 39 39 39 39 37 34 37 39 41 42 43 43
62 79 85 95 96 95 91 86 83 76 72 65 62 59 54 48 50 44 44 45 42 39 36 35 38 40 36 40 44 44 46 47
31 50 74 77 82 94 92 88 81 77 77 67 55 53 60 58 53 50 43 41 43 43 42 39 39 39 40 39 39 43 50 52
15 30 55 62 72 75 85 84 79 78 71 57 51 43 43 41 42 44 45 46 45 43 43 34 32 42 44 43 43 42 42 43